Location: Unspecified
(0.0000°N, 0.0000°E)
Time: 07:22:18
(UTC+00:00)

ISS - Visible Passes

Search period start: 03 October 2023 00:00
Search period end: 13 October 2023 00:00
Orbit: 414 x 421 km, 51.6° (Epoch: 03 October)

Date Brightness Start Highest point End Pass type
(mag) Time Alt. Az. Time Alt. Az. Time Alt. Az.
07 Oct -1.5 19:02:46 10° N 19:03:31 15° N 19:03:31 15° N visible
08 Oct -1.7 18:15:59 10° NNE 18:17:20 12° NE 18:18:42 10° ENE visible
08 Oct -0.4 19:51:17 10° WNW 19:51:45 12° W 19:51:45 12° W visible
09 Oct -2.9 19:02:19 10° NW 19:05:33 50° SW 19:07:15 24° S visible
10 Oct -3.7 18:13:55 10° NNW 18:17:12 59° NE 18:20:30 10° SE visible
11 Oct -0.3 19:04:35 10° WSW 19:05:21 11° SW 19:06:07 10° SW visible
12 Oct -0.7 05:02:29 10° SSE 05:04:39 16° SE 05:06:48 10° E visible
12 Oct -1.1 18:14:10 10° WNW 18:16:53 23° SW 18:19:37 10° S visible
